Location: Kitchener
(43.4500°N, 80.5000°W)
Time: 10:19:29
(UTC-05:00)

ISS - Visible Passes

Search period start: 21 February 2018 00:00
Search period end: 03 March 2018 00:00
Orbit: 403 x 407 km, 51.6° (Epoch: 22 February)

Date Brightness Start Highest point End Pass type
(mag) Time Alt. Az. Time Alt. Az. Time Alt. Az.
25 Feb -0.4 05:52:36 10° SE 05:53:07 10° SE 05:53:37 10° ESE visible
27 Feb -1.6 05:42:05 10° S 05:44:45 23° SE 05:47:26 10° E visible
28 Feb -1.0 04:51:51 12° SSE 04:52:41 13° SE 04:54:16 10° ESE visible
28 Feb -3.8 06:25:27 10° WSW 06:28:45 83° NNW 06:32:02 10° ENE visible
01 Mar -3.2 05:34:48 24° SSW 05:36:29 53° SE 05:39:42 10° ENE visible
02 Mar -1.8 04:44:55 26° ESE 04:44:55 26° ESE 04:47:11 10° ENE visible
02 Mar -3.2 06:17:35 10° W 06:20:41 42° NNW 06:23:49 10° NE visible
